TimePDT,TemperatureF,Dew PointF,Humidity,Sea Level PressureIn,VisibilityMPH,Wind Direction,Wind SpeedMPH,Gust SpeedMPH,PrecipitationIn,Events,Conditions,WindDirDegrees,DateUTC
12:51 AM,61.0,51.1,70,29.97,10.0,North,3.5,-,N/A,,Clear,10,2012-10-26 07:51:00
1:51 AM,60.1,48.0,64,29.96,10.0,NNE,3.5,-,N/A,,Clear,20,2012-10-26 08:51:00
2:51 AM,60.1,46.0,60,29.96,10.0,Calm,Calm,-,N/A,,Clear,0,2012-10-26 09:51:00
3:51 AM,60.1,45.0,57,29.94,10.0,Calm,Calm,-,N/A,,Clear,0,2012-10-26 10:51:00
4:51 AM,57.9,44.1,60,29.94,10.0,NE,3.5,-,N/A,,Clear,50,2012-10-26 11:51:00
5:51 AM,57.0,44.1,62,29.96,10.0,NW,3.5,-,N/A,,Clear,320,2012-10-26 12:51:00
6:51 AM,60.1,39.0,46,29.96,10.0,North,5.8,-,N/A,,Clear,10,2012-10-26 13:51:00
7:51 AM,60.1,41.0,49,29.98,10.0,NNW,3.5,-,N/A,,Clear,340,2012-10-26 14:51:00
8:51 AM,66.9,37.9,34,30.01,10.0,Calm,Calm,-,N/A,,Clear,0,2012-10-26 15:51:00
9:51 AM,72.0,43.0,35,30.00,10.0,Calm,Calm,-,N/A,,Clear,0,2012-10-26 16:51:00
10:51 AM,78.1,36.0,22,29.99,10.0,West,3.5,-,N/A,,Clear,270,2012-10-26 17:51:00
11:51 AM,82.0,34.0,18,29.98,10.0,NW,5.8,-,N/A,,Clear,310,2012-10-26 18:51:00
12:51 PM,80.1,39.0,23,29.96,10.0,NW,9.2,-,N/A,,Clear,310,2012-10-26 19:51:00
1:51 PM,79.0,33.1,19,29.93,10.0,NW,12.7,-,N/A,,Clear,320,2012-10-26 20:51:00
2:51 PM,81.0,25.0,13,29.91,10.0,NW,10.4,-,N/A,,Clear,320,2012-10-26 21:51:00
3:51 PM,79.0,32.0,18,29.91,10.0,WNW,10.4,-,N/A,,Clear,290,2012-10-26 22:51:00
4:51 PM,78.1,39.0,25,29.91,10.0,WNW,8.1,-,N/A,,Clear,300,2012-10-26 23:51:00
5:51 PM,75.0,43.0,32,29.91,10.0,NW,5.8,-,N/A,,Clear,320,2012-10-27 00:51:00
6:51 PM,72.0,50.0,46,29.92,10.0,Calm,Calm,-,N/A,,Clear,0,2012-10-27 01:51:00
7:51 PM,71.1,46.9,42,29.93,10.0,Calm,Calm,-,N/A,,Clear,0,2012-10-27 02:51:00
8:51 PM,71.1,39.9,32,29.93,10.0,Calm,Calm,-,N/A,,Clear,0,2012-10-27 03:51:00
9:51 PM,69.1,37.0,31,29.94,10.0,Calm,Calm,-,N/A,,Clear,0,2012-10-27 04:51:00
10:51 PM,66.9,37.9,34,29.93,10.0,Calm,Calm,-,N/A,,Clear,0,2012-10-27 05:51:00
11:51 PM,64.0,39.9,41,29.91,10.0,Calm,Calm,-,N/A,,Clear,0,2012-10-27 06:51:00